Regional Weather Roundup
Issued by NWS

Home | Current Version | Previous Version | Graphics & Text | Print | Product List | Glossary On
Versions: 1 2 3 4 5 6 7 8 9 10 11 12 13 14 15 16 17 18 19 20 21 22 23 24 25 26 27 28 29 30 31 32 33 34 35 36 37 38 39 40 41 42 43 44 45 46 47 48 49 50
000
ASUS43 KMPX 031610
RWRMN
WEATHER ROUNDUP FOR MINNESOTA
NATIONAL WEATHER SERVICE TWIN CITIES/CHANHASSEN MN
1100 AM CDT FRI JUL 03 2015


NOTE: "FAIR" INDICATES FEW OR NO CLOUDS BELOW 12,000 FEET WITH NO
SIGNIFICANT WEATHER AND/OR OBSTRUCTIONS TO VISIBILITY. N/A MEANS
CURRENT SKY AND/OR WEATHER CONDITIONS ARE NOT AVAILABLE.

MNZ060>063-068>070-031700-
   Twin Cities Metro

CITY           SKY/WX    TMP DP  RH WIND       PRES   REMARKS
TWIN CITIES    MOSUNNY   73  55  53 SW9       29.96F
ST PAUL        SUNNY     73  58  59 W7        29.96F
CRYSTAL        SUNNY     75  54  47 W13       29.95S
BLAINE         SUNNY     75  57  53 W8        29.95F
LAKEVILLE      SUNNY     70  57  64 W5        29.98S
EDEN PRAIRIE   SUNNY     72  59  63 SW7       29.96F
SOUTH ST PAUL  SUNNY     72  55  54 W8        29.97S
LAKE ELMO      FAIR      73  55  53 W9        29.97F
$$
MNZ001>005-007-008-013>017-022>024-027-028-031700-
   Northwest Minnesota

CITY           SKY/WX    TMP DP  RH WIND       PRES   REMARKS
BEMIDJI        PTSUNNY   73  65  77 NW8       29.93S HAZE
HALLOCK        SUNNY     72  64  78 CALM      29.93S HAZE
ROSEAU         SUNNY     73  66  78 N3        29.92F HAZE
WARROAD        SUNNY     73  64  73 NW6       29.92F HAZE
THIEF RVR FALL SUNNY     72  63  73 NW7       29.94S
CROOKSTON      MOSUNNY   75  64  69 N7        29.94S HAZE
FOSSTON        SUNNY     73  64  73 CALM      29.95S HAZE
DETROIT LAKES    N/A     72  63  73 N9        29.96S HAZE
MOORHEAD       MOSUNNY   72  66  83 CALM      29.94F HAZE
PARK RAPIDS    CLOUDY    74  64  71 NW7       29.93F HAZE
MAHNOMEN       CLOUDY    70  64  81 CALM      29.94F HAZE
$$
MNZ006-009>011-018-025>026-031700-
   North Central Minnesota

CITY           SKY/WX    TMP DP  RH WIND       PRES   REMARKS
BAUDETTE       SUNNY     73  63  70 NW12      29.90F HAZE
FLAG ISLAND    SUNNY     72  61  68 NW7       29.91S
INTL FALLS     MOSUNNY   74  63  68 W10       29.88S HAZE
WASKISH        SUNNY     73  64  73 W5        29.91S
BIG FORK       SUNNY    N/A N/A N/A W5        29.90F HAZE
LONGVILLE      CLOUDY    70  64  83 W6        29.92S
GRAND RAPIDS   MOSUNNY   72  63  73 NW9       29.91F
CRANE LAKE     SUNNY     70  63  78 W3        29.88F
ORR            SUNNY     72  61  68 NW8       29.87R
COOK           SUNNY     72  63  73 W6        29.89S
WALKER         CLOUDY    69  64  81 NW5       29.93S HAZE
$$
MNZ012-019>021-037-031700-
   Northeast Minnesota

CITY           SKY/WX    TMP DP  RH WIND       PRES   REMARKS
DULUTH         MOSUNNY   72  61  68 NW7       29.89F
ELY            SUNNY     72  61  68 W6        29.87F
HIBBING        SUNNY     73  63  70 NW8       29.89F
EVELETH        SUNNY     72  61  68 W6        29.90S
DULUTH HARBOR  SUNNY     73  63  68 W7        29.88S
TWO HARBORS    SUNNY     75  64  69 W5        29.85S
SILVER BAY     SUNNY     73  61  64 W5        29.84F
GRAND MARAIS     N/A     52  48  86 SW12      29.81S
G MARAIS ARPRT SUNNY     70  57  64 W5        29.86S HAZE
$$
MNZ029>031-032-039>041-046>048-054>057-064-031700-
   West Central Minnesota

CITY           SKY/WX    TMP DP  RH WIND       PRES   REMARKS
FERGUS FALLS   SUNNY     70  64  83 CALM      29.94F
WHEATON        SUNNY     72  64  78 NW5       29.96F
MORRIS         SUNNY     75  64  69 W5        29.94F
ALEXANDRIA     MOSUNNY   71  64  78 W6        29.97F
ELBOW LAKE     FAIR      69  64  84 NW3       29.96S
WADENA         MOSUNNY   70  63  78 W5        29.94S
GLENWOOD       SUNNY     72  63  73 W8        29.97S
APPLETON       SUNNY     75  63  64 W5        29.95F
BENSON         SUNNY     73  61  64 NW3       29.96S
ORTONVILLE     SUNNY     75  64  69 W5        29.95F
MADISON        SUNNY     75  63  64 W3        29.96F
WILLMAR        FAIR      72  61  68 SW6       29.98F
$$
MNZ033>034-036-042>043-049>051-058-059-031700-
   Central Minnesota

CITY           SKY/WX    TMP DP  RH WIND       PRES   REMARKS
ST CLOUD       SUNNY     74  61  63 W8        29.94F
SAUK CENTRE    PTSUNNY   71  63  75 W7        29.96S
PAYNESVILLE    SUNNY     71  59  66 SW8       29.96F
AITKIN         SUNNY     73  64  73 SW5       29.90F
PINE RIVER       N/A     70  63  78 NW6       29.96S HAZE
BRAINERD       MOSUNNY   73  62  68 W8        29.93F
STAPLES        SUNNY     72  63  73 W8        29.94S
LONG PRAIRIE   FAIR      70  63  78 W6        29.95F
LITTLE FALLS   SUNNY     72  59  64 SW3       29.94S
LITCHFIELD     SUNNY     73  59  60 SW6       29.97F
BUFFALO        SUNNY     71  57  60 SW6       29.97F
MAPLE LAKE     SUNNY     72  62  70 CALM      29.97S
$$
MNZ037-044-045-052-053-031700-
   East Central Minnesota

CITY           SKY/WX    TMP DP  RH WIND       PRES   REMARKS
PRINCETON      SUNNY     73  63  68 W5        29.94F
MORA           MOSUNNY   70  59  68 W5        29.94F
CAMBRIDGE      MOSUNNY   73  57  56 CALM      29.93S
RUSH CITY      MOSUNNY   70  58  66 SW5       29.94F
MOOSE LAKE     PTSUNNY   72  61  68 W8        29.89S
HINCKLEY       FAIR      70  59  68 SW6       29.92F
CLOQUET        SUNNY     72  59  64 W9        29.90S
MCGREGOR       MOSUNNY   70  61  73 W7        29.91F
$$
MNZ071>073-080-081-089-090-097-098-031700-
   Southwest Minnesota

CITY           SKY/WX    TMP DP  RH WIND       PRES   REMARKS
MONTEVIDEO     SUNNY     73  63  68 CALM      29.98S
GRANITE FALLS  SUNNY     70  60  70 CALM      29.99F
CANBY          SUNNY     74  63  69 NW3       29.98F
MARSHALL       SUNNY     72  55  56 NW8       29.98S
REDWOOD FALLS  SUNNY     71  60  68 W5        29.98F
OLIVIA         SUNNY     68  57  68 W5        29.97F
PIPESTONE      SUNNY     66  57  72 SW6       30.01F
WINDOM         MOSUNNY   72  57  60 W7        30.01S
WORTHINGTON    MOSUNNY   68  57  68 W6        30.02F
JACKSON        MOSUNNY   70  59  68 W6        30.02S
TRACY          SUNNY     72  59  64 W5        30.00S
SLAYTON        SUNNY     68  58  68 W8        30.02F
$$
MNZ065>067-074>077-082>085-091>093-031700-
   South Central Minnesota

CITY           SKY/WX    TMP DP  RH WIND       PRES   REMARKS
MANKATO        SUNNY     70  52  52 SW7       29.99S
NEW ULM        SUNNY     70  57  64 W3        29.99S
ST JAMES       SUNNY     72  57  60 W5        30.00F
FAIRMONT       SUNNY     70  54  56 W5        30.00F
GLENCOE        SUNNY     73  59  61 SW5       29.97F
FARIBAULT      SUNNY     72  57  60 CALM      29.99S
OWATONNA       SUNNY     72  54  53 W6        30.00S
WASECA         SUNNY     70  54  56 W6        30.01S
ALBERT LEA     SUNNY     72  54  53 W5        30.00F
$$
MNZ078>079-086>088-094>096-031700-
   Southeast Minnesota

CITY           SKY/WX    TMP DP  RH WIND       PRES   REMARKS
ROCHESTER      SUNNY     71  56  58 VRB6      30.00F
RED WING       SUNNY     73  57  56 W6        29.96F
STANTON        SUNNY     72  55  56 W6        29.97F
DODGE CENTER   SUNNY     70  57  64 NW6       30.00S
WINONA         SUNNY     72  59  64 CALM      29.98F
AUSTIN         SUNNY     72  55  56 N6        30.00F
PRESTON        SUNNY     69  55  60 N6        30.01S
$$
ABBREVIATIONS USED IN REMARKS
   TC - TEMPERATURES IN CELSIUS
  WCI - WIND CHILL INDEX
   HX - HEAT INDEX
  VSB - VISIBILITY
$$



USA.gov is the U.S. government's official web portal to all federal, state and local government web resources and services.